756  
ASUS43 KMKX 232021  
RWRWI  
 
WISCONSIN REGIONAL WEATHER ROUNDUP  
NATIONAL WEATHER SERVICE MILWAUKEE/SULLIVAN WI  
200 PM CST SUN FEB 23 2020  
 
NOTE: "FAIR" INDICATES FEW OR NO CLOUDS BELOW 12,000 FEET WITH NO  
SIGNIFICANT WEATHER AND/OR S TO VISIBILITY
.  
 
WIZ001-002-006>008-014>016-023>028-232100-  
NORTHWEST WISCONSIN  
 
CITY SKY/WX TMP DP RH WIND PRES REMARKS
 
SUPERIOR ARPT FAIR 45 26 46 W21G28 29.73R  
ASHLAND FAIR 46 25 43 W17G25 29.67S  
HAYWARD FAIR 46 25 43 SW9 29.73F  
SIREN FAIR 45 27 50 SW15 29.78S  
CUMBERLAND FAIR 41 27 56 W13G18 29.78S  
RICE LAKE FAIR 49 32 50 SW9 29.80F  
CHETEK FAIR 46 27 48 W8G18 29.79F  
LADYSMITH FAIR 46 27 47 SW9 29.78R  
EAU CLAIRE FAIR 45 26 47 W14 29.81S  
MENOMONIE FAIR 42 25 50 SW13 29.83S  
NEW RICHMOND FAIR 44 26 48 W15 29.83S  
OSCEOLA FAIR 44 28 54 W17 29.85F  

 
 
WIZ003>005-009-010-017-018-232100-  
NORTH CENTRAL WISCONSIN  
 
CITY SKY/WX TMP DP RH WIND PRES REMARKS
 
MANITOWISH WTR NOT AVBL  
ARBOR VITAE FAIR 49 28 43 W17G24 29.67S  
WOODRUFF FAIR 49 28 43 W17G24 29.67S  
RHINELANDER FAIR 45 25 45 W20G29 29.68S  
EAGLE RIVER FAIR 46 22 38 W21G29 29.65S  
LAND O LAKES FAIR 50 21 31 W15 29.64S  
PHILLIPS FAIR 46 26 44 W9G22 29.71R  
TOMAHAWK FAIR 47 23 38 W13G24 29.72R  
MEDFORD FAIR 40 26 56 SW12 29.76S WCI 33  
MERRILL FAIR 46 27 48 W13G18 29.74S  

 
 
WIZ029-030-035-036-043>047-232100-  
CENTRAL WISCONSIN  
 
CITY SKY/WX TMP DP RH WIND PRES REMARKS
 
WAUSAU FAIR 44 26 49 W15G24 29.74S  
MOSINEE SUNNY 45 27 49 W14 29.77F  
MARSHFIELD FAIR 45 26 47 W12G18 29.77S  
STEVENS POINT FAIR 48 25 40 W10G20 29.78S  
WAUPACA FAIR 53 24 32 W17G24 29.78S  
WAUTOMA FAIR 51 26 37 W14 29.79F  
WISC RAPIDS FAIR 50 25 37 W10 29.79F  
CAMP DOUGLAS SUNNY 48 28 46 W15 29.81F  

 
 
WIZ011>013-019>022-031-037>040-048>050-232100-  
NORTHEAST WISCONSIN  
 
CITY SKY/WX TMP DP RH WIND PRES REMARKS
 
ANTIGO FAIR 43 27 52 W15 29.72S  
SHAWANO FAIR 52 26 37 SW8G16 29.73F  
OCONTO FAIR 47 27 44 SW13G20 29.72F  
STURGEON BAY FAIR 45 27 49 SW17G24 N/A  
GREEN BAY FAIR 43 28 55 SW8 29.76F  
MANITOWOC FAIR 45 27 49 SW16G22 29.79F  
APPLETON SUNNY 45 21 39 SW12 29.76F  
CLINTONVILLE FAIR 48 25 40 SW10 29.75F  
OSHKOSH FAIR 44 28 53 S10 29.79F  

 
 
WIZ032>034-041-042-053>061-232100-  
SOUTHWEST WISCONSIN  
 
CITY SKY/WX TMP DP RH WIND PRES REMARKS
 
LA CROSSE FAIR 48 26 42 W12 29.85F  
SPARTA FAIR 50 27 41 W9 29.84F  
VIROQUA FAIR 47 29 49 W8 29.85F  
BOSCOBEL FAIR 51 26 37 SW7 29.88F  
PRAIRIE DU CHI FAIR 47 26 44 SW9 29.89S  
PLATTEVILLE FAIR 45 31 58 SW10 29.90S  

 
 
WIZ056-057-062-063-064-067-068-232100-  
SOUTH CENTRAL WISCONSIN  
 
CITY SKY/WX TMP DP RH WIND PRES REMARKS
 
REEDSBURG FAIR 51 26 38 W9 29.84F  
BARABOO/DELLS FAIR 48 25 41 SW10 29.83F  
LONE ROCK FAIR 46 27 47 W9 29.87F  
MINERAL POINT FAIR 46 28 49 SW7 29.89S  
MADISON FAIR 49 26 41 SW8 29.87S  
MIDDLETON FAIR 50 26 38 SW10 29.86F  
WATERTOWN FAIR 43 30 59 SW9 29.86S  
MONROE FAIR 45 30 57 SW10 29.88S  
JANESVILLE SUNNY 45 30 57 SW10 29.89F  

 
 
WIZ051-052-058>065-066-070>072-232100-  
SOUTHEAST WISCONSIN  
 
CITY SKY/WX TMP DP RH WIND PRES REMARKS
 
MILWAUKEE FAIR 50 28 42 SW10 29.87S  
WAUKESHA SUNNY 45 25 45 SW9 29.87F  
MILWAUKEE/TIMM SUNNY 46 25 42 SW13G18 29.86F  
RACINE FAIR 49 29 46 W9G20 29.89S  
KENOSHA FAIR 52 30 43 W14G22 29.89S  
FOND DU LAC FAIR 45 29 53 SW12 29.82S  
SHEBOYGAN FAIR 43 28 55 SW14 29.81S  
WEST BEND FAIR 46 27 46 SW9 29.83F  
JUNEAU FAIR 41 29 63 S10 29.86S  

 
 
LSZ147-162-232100-  
LAKE SUPERIOR  
 
STATION/POSITION TIME TEMP WIND PRES WAVE
 
AIR SEA DIR/SP/G HT/PER  
(UTC) (F) (DEG/KT/KT) (MB) (FT/S)  
DEVILS ISLAND 2000 38 240/ 23/ 26 1003.9R  
SAXON HARBOR 1940 50 260/ 9/ 17 1004.1S  

 
 
LMZ867-665-643>646-232100-  
LAKE MICHIGAN  
 
STATION/POSITION TIME TEMP WIND PRES WAVE
 
AIR SEA DIR/SP/G HT/PER  
(UTC) (F) (DEG/KT/KT) (MB) (FT/S)  
NORTHPORT PIER 1940 47 210/ 8/ 13 1005.4F  
KEWAUNEE LAKESHO 1936 46 230/ 8/ 13 1007.3F  
SHEBOYGAN LAKESH 2000 46 230/ 15/ 17 N/A  
PORT WASHINGTON 1940 50 260/ 8/ 14 1011.5F  
MILWAUKEE LAKESH 2000 49 220/ 9/ 11 N/A  
KENOSHA LAKESH 2000 50 260/ 13/ 18 1012.2  

 
 
TC - TEMPERATURE IN CELSIUS  
VSB - VISIBILITY IN STATUTE MILES  
WCI - WIND CHILL INDEX  
HX - HEAT INDEX  
 
 
 
CLICK HERE TO GO TO PREVIOUS BULLETINS.

The Nexlab WI Page Main Text Page